Stations météo

réclame
Mon MeteoGroup
London/Heathrow Intl, Grande-Bretagne (3772): Température de l'air & dewpoint: 19.06.2019 19:00:00 - 25.06.2019 19:00:00 (BST)London/Heathrow Intl, Grande-Bretagne (3772): Vitesse du vent: 19.06.2019 19:00:00 - 25.06.2019 19:00:00 (BST)London/Heathrow Intl, Grande-Bretagne (3772): Direction du vent: 19.06.2019 19:00:00 - 25.06.2019 19:00:00 (BST)London/Heathrow Intl, Grande-Bretagne (3772): reduced air pressure: 19.06.2019 19:00:00 - 25.06.2019 19:00:00 (BST)London/Heathrow Intl, Grande-Bretagne (3772): visibility: 19.06.2019 19:00:00 - 25.06.2019 19:00:00 (BST)London/Heathrow Intl, Grande-Bretagne (3772): Ensoleillement: 19.06.2019 19:00:00 - 25.06.2019 19:00:00 (BST)London/Heathrow Intl, Grande-Bretagne (3772): Quantités de précipitations: 19.06.2019 19:00:00 - 25.06.2019 19:00:00 (BST)
Date & Time tt [°C] td [°C] ff [km/h] ff [knt] dd ppp [hPa] vv [km] sd [min] rr [mm]
25.06.2019 19:00:00 20,8 16,6 11 6 NNE 1020,8 10 36 -
25.06.2019 18:00:00 20,7 16,7 11 6 N 1020,2 10 0 0,0
25.06.2019 17:00:00 21,7 17,1 13 7 N 1019,4 10 0 0,0
25.06.2019 16:00:00 22,2 17,8 11 6 N 1019,2 10 0 0,0
25.06.2019 15:00:00 23,6 18,0 8 4 NNE 1018,8 10 0 0,0
25.06.2019 14:00:00 23,3 17,4 9 5 NE 1018,5 35 0 0,0
25.06.2019 13:00:00 23,1 17,6 8 4 NNE 1018,2 10 0 0,0
25.06.2019 12:00:00 22,5 18,0 8 4 NNW 1018,0 10 0 0,0
25.06.2019 11:00:00 21,3 18,4 5 3 - 1017,5 10 0 0,0
25.06.2019 10:00:00 20,5 18,2 8 4 NNE 1017,2 10 0 0,0
25.06.2019 09:00:00 19,4 17,8 4 2 - 1017,1 10 0 0,0
25.06.2019 08:00:00 19,1 18,0 8 4 NE 1016,9 7 0 0,0
25.06.2019 07:00:00 18,5 17,9 4 2 - 1016,3 6 0 0,0
25.06.2019 06:00:00 18,1 17,7 8 4 NE 1016,0 4,3 0 2,4
25.06.2019 05:00:00 18,0 17,4 4 2 - 1017,0 4,9 0 0,2
25.06.2019 04:00:00 18,1 17,3 5 3 ESE 1016,8 6 0 0,0
25.06.2019 03:00:00 18,4 17,3 2 1 - 1016,7 8 0 0,2
25.06.2019 02:00:00 18,5 17,0 4 2 NNW 1017,1 12 0 0,0
25.06.2019 01:00:00 18,4 16,4 8 4 S 1018,5 10 - 0,0
25.06.2019 00:00:00 18,9 16,3 5 3 SSW 1018,1 10 0 0,0
24.06.2019 23:00:00 19,9 16,3 9 5 SSW 1018,5 10 0 0,0
24.06.2019 22:00:00 20,7 16,2 11 6 SSW 1018,2 30 0 0,0
24.06.2019 21:00:00 21,6 15,8 16 9 S 1017,8 10 0 0,0
24.06.2019 20:00:00 22,8 16,6 13 7 S 1017,5 19 0 0,0
24.06.2019 19:00:00 23,4 14,5 11 6 SSE 1016,6 30 0 0,0
24.06.2019 18:00:00 23,7 16,6 9 5 S 1016,3 25 0 0,0
24.06.2019 17:00:00 24,0 17,2 9 5 SSW 1016,2 22 0 0,0
24.06.2019 16:00:00 23,8 17,3 9 5 W 1016,1 10 0 0,0
24.06.2019 15:00:00 23,0 17,2 18 10 SSW 1016,7 10 0 0,0
24.06.2019 14:00:00 23,7 17,8 13 7 SSW 1016,6 10 0 0,0
24.06.2019 13:00:00 23,1 17,7 11 6 SSW 1016,4 24 0 0,0
24.06.2019 12:00:00 22,8 17,6 11 6 WSW 1015,7 10 0 0,0
24.06.2019 11:00:00 23,3 18,0 11 6 WSW 1014,5 10 0 0,0
24.06.2019 10:00:00 22,6 17,4 11 6 S 1014,8 25 0 0,0
24.06.2019 09:00:00 22,7 17,3 11 6 S 1014,4 10 24 0,0
24.06.2019 08:00:00 22,0 17,0 4 2 - 1013,9 10 42 0,0
24.06.2019 07:00:00 20,6 17,1 8 4 ENE 1013,1 6 30 0,0
24.06.2019 06:00:00 17,8 15,8 8 4 NE 1013,3 5 0 0,0
24.06.2019 05:00:00 17,5 15,5 8 4 ENE 1013,2 5 0 0,0
24.06.2019 04:00:00 17,5 15,2 4 2 - 1013,6 7 0 0,0
24.06.2019 03:00:00 17,9 15,1 0 0 N 1013,9 8 0 0,0
24.06.2019 02:00:00 17,9 14,8 4 2 ENE 1014,1 7 0 0,0
24.06.2019 01:00:00 18,8 15,0 5 3 ENE 1014,3 9 - 0,0
24.06.2019 00:00:00 19,0 14,6 5 3 E 1014,6 10 0 0,0
23.06.2019 23:00:00 19,6 14,3 8 4 ENE 1014,6 17 0 0,0
23.06.2019 22:00:00 20,1 14,3 16 9 E 1014,6 10 0 0,0
23.06.2019 21:00:00 20,6 14,1 16 9 E 1014,5 10 0 0,0
23.06.2019 20:00:00 20,8 14,1 8 4 E 1014,7 10 0 0,0
23.06.2019 19:00:00 21,0 13,9 21 11 E 1014,8 10 0 0,0
23.06.2019 18:00:00 21,3 13,7 22 12 E 1015,0 10 0 0,0
23.06.2019 17:00:00 21,9 13,3 24 13 E 1015,0 10 0 0,0
23.06.2019 16:00:00 23,2 14,1 21 11 E 1015,6 10 6 0,0
23.06.2019 15:00:00 24,5 14,3 22 12 E 1015,4 10 6 0,0
23.06.2019 14:00:00 23,9 13,5 22 12 E 1015,8 30 0 0,0
23.06.2019 13:00:00 23,2 14,3 13 7 ENE 1016,6 10 0 0,0
23.06.2019 12:00:00 22,1 14,5 13 7 ENE 1017,2 23 0 0,0
23.06.2019 11:00:00 22,0 14,0 13 7 E 1017,5 21 0 0,0
23.06.2019 10:00:00 20,9 14,5 13 7 E 1018,0 10 30 0,0
23.06.2019 09:00:00 18,7 14,2 13 7 E 1018,2 10 6 0,0
23.06.2019 08:00:00 16,7 13,4 8 4 ENE 1018,2 10 6 0,0
23.06.2019 07:00:00 15,1 12,9 9 5 ENE 1018,2 10 6 0,0
23.06.2019 06:00:00 13,3 11,5 5 3 - 1018,2 10 0 0,0
23.06.2019 05:00:00 12,8 11,0 8 4 NE 1018,6 10 0 0,0
23.06.2019 04:00:00 12,9 10,6 5 3 NE 1019,0 10 0 0,0
23.06.2019 03:00:00 13,3 10,0 8 4 ENE 1019,1 10 0 0,0
23.06.2019 02:00:00 13,6 9,4 5 3 NE 1019,5 10 0 0,0
23.06.2019 01:00:00 13,7 9,2 5 3 ENE 1019,9 10 - 0,0
23.06.2019 00:00:00 14,6 8,9 9 5 ENE 1020,0 45 0 0,0
22.06.2019 23:00:00 14,7 6,2 13 7 E 1020,4 10 0 0,0
22.06.2019 22:00:00 15,6 5,0 16 9 E 1020,4 65 0 0,0
22.06.2019 21:00:00 17,0 4,8 16 9 E 1020,1 10 6 0,0
22.06.2019 20:00:00 19,0 5,4 22 12 E 1019,4 60 60 0,0
22.06.2019 19:00:00 20,8 6,4 21 11 E 1019,3 10 60 0,0
22.06.2019 18:00:00 21,5 9,2 18 10 E 1019,3 10 42 0,0
22.06.2019 17:00:00 21,2 8,6 18 10 ESE 1019,8 10 6 0,0
22.06.2019 16:00:00 21,3 9,3 11 6 ESE 1020,0 10 12 0,0
22.06.2019 15:00:00 23,6 9,7 18 10 S 1020,2 50 54 0,0
22.06.2019 14:00:00 23,0 9,1 13 7 - 1020,7 10 60 0,0
22.06.2019 13:00:00 21,7 9,0 11 6 S 1021,2 10 54 0,0
22.06.2019 12:00:00 21,5 8,3 16 9 SSE 1021,5 70 60 0,0
22.06.2019 11:00:00 20,2 9,9 13 7 SE 1021,7 10 60 0,0
22.06.2019 10:00:00 18,7 10,2 11 6 S 1022,1 10 60 0,0
22.06.2019 09:00:00 17,6 10,2 9 5 S 1022,2 55 60 0,0
22.06.2019 08:00:00 15,5 10,0 5 3 - 1021,8 10 60 0,0
22.06.2019 07:00:00 13,3 10,2 8 4 SE 1021,8 35 54 0,0
22.06.2019 06:00:00 11,1 10,1 5 3 S 1021,9 10 6 0,0
22.06.2019 05:00:00 10,4 8,9 5 3 SSE 1021,8 10 0 0,0
22.06.2019 04:00:00 10,9 9,3 4 2 - 1021,6 10 0 0,0
22.06.2019 03:00:00 11,5 9,6 5 3 SW 1021,6 35 0 0,0
22.06.2019 02:00:00 12,4 9,9 5 3 SSW 1021,7 10 0 0,0
22.06.2019 01:00:00 13,5 10,1 8 4 SSW 1021,9 10 - 0,0
22.06.2019 00:00:00 14,6 9,9 9 5 SSW 1021,7 40 0 0,0
21.06.2019 23:00:00 16,1 10,0 9 5 SW 1021,6 50 0 0,0
21.06.2019 22:00:00 17,2 10,5 13 7 SW 1021,3 10 0 0,0
21.06.2019 21:00:00 18,3 9,9 13 7 W 1021,1 40 0 0,0
21.06.2019 20:00:00 19,4 6,7 8 4 WNW 1020,6 10 18 0,0
21.06.2019 19:00:00 20,6 6,5 8 4 NW 1020,3 10 6 0,0
21.06.2019 18:00:00 20,3 6,5 11 6 WNW 1020,2 10 12 0,0
21.06.2019 17:00:00 20,2 6,0 11 6 WNW 1020,0 10 18 0,0
21.06.2019 16:00:00 21,7 7,1 15 8 WSW 1019,8 10 54 0,0
21.06.2019 15:00:00 20,8 6,0 15 8 W 1019,7 10 54 0,0
21.06.2019 14:00:00 20,6 7,5 13 7 W 1019,7 55 48 0,0
21.06.2019 13:00:00 18,9 7,3 13 7 WNW 1019,7 10 48 0,0
21.06.2019 12:00:00 19,0 9,3 15 8 W 1019,6 10 48 0,0
21.06.2019 11:00:00 18,6 8,0 16 9 W 1019,5 50 54 0,0
21.06.2019 10:00:00 16,9 9,8 16 9 W 1019,4 10 60 0,0
21.06.2019 09:00:00 14,9 9,1 21 11 W 1019,2 40 60 0,0
21.06.2019 08:00:00 14,2 10,0 16 9 W 1018,8 10 60 0,0
21.06.2019 07:00:00 12,0 9,5 9 5 W 1018,4 10 54 0,0
21.06.2019 06:00:00 10,1 8,7 8 4 W 1018,0 10 6 0,0
21.06.2019 05:00:00 9,3 8,1 8 4 W 1017,8 45 0 0,0
21.06.2019 04:00:00 10,0 8,3 11 6 WSW 1017,5 10 0 0,0
21.06.2019 03:00:00 10,7 8,2 11 6 W 1017,3 40 0 0,0
21.06.2019 02:00:00 11,3 8,3 15 8 WSW 1016,8 10 0 0,0
21.06.2019 01:00:00 12,3 9,3 15 8 WSW 1016,5 10 - 0,0
21.06.2019 00:00:00 14,0 9,8 18 10 WSW 1016,2 10 0 0,0
20.06.2019 23:00:00 14,7 9,7 16 9 WSW 1015,7 75 0 0,0
20.06.2019 22:00:00 15,3 9,5 16 9 SW 1015,3 10 0 0,0
20.06.2019 21:00:00 15,7 9,2 16 9 SW 1014,8 10 0 0,0
20.06.2019 20:00:00 16,4 9,6 26 14 WSW 1014,5 10 0 0,0
20.06.2019 19:00:00 16,9 8,5 24 13 SW 1014,0 10 0 0,0
20.06.2019 18:00:00 18,2 8,6 22 12 SW 1013,6 10 18 0,0
20.06.2019 17:00:00 20,4 8,7 22 12 WSW 1013,3 10 48 0,0
20.06.2019 16:00:00 18,7 8,1 18 10 WSW 1013,4 10 6 0,0
20.06.2019 15:00:00 19,3 8,4 21 11 W 1013,4 10 18 0,0
20.06.2019 14:00:00 18,0 8,3 28 15 WSW 1013,3 10 0 0,0
20.06.2019 13:00:00 18,6 8,4 24 13 W 1012,9 60 24 0,0
20.06.2019 12:00:00 19,3 10,1 28 15 WSW 1012,8 10 18 0,0
20.06.2019 11:00:00 18,8 10,6 21 11 W 1012,3 10 48 0,0
20.06.2019 10:00:00 16,8 10,1 21 11 W 1012,2 10 54 0,0
20.06.2019 09:00:00 15,9 11,5 16 9 W 1012,0 10 60 0,0
20.06.2019 08:00:00 14,3 10,8 21 11 W 1011,8 10 60 0,0
20.06.2019 07:00:00 13,3 10,2 21 11 W 1011,3 10 42 0,0
20.06.2019 06:00:00 12,4 10,0 13 7 W 1010,9 10 0 0,0
20.06.2019 05:00:00 13,5 11,4 15 8 W 1010,5 10 0 0,0
20.06.2019 04:00:00 14,0 11,7 13 7 W 1010,0 10 0 0,0
20.06.2019 03:00:00 14,4 12,9 13 7 W 1009,8 10 0 0,0
20.06.2019 02:00:00 14,9 13,8 11 6 W 1009,8 21 0 0,0
20.06.2019 01:00:00 15,2 14,3 9 5 WSW 1009,8 10 - 0,4
20.06.2019 00:00:00 15,6 14,1 9 5 WSW 1009,6 10 0 0,0
19.06.2019 23:00:00 16,2 13,7 15 8 WSW 1009,3 10 0 0,0
19.06.2019 22:00:00 16,7 14,2 11 6 W 1009,0 10 0 0,0
19.06.2019 21:00:00 17,4 14,5 15 8 W 1008,5 10 0 0,0
19.06.2019 20:00:00 17,7 14,7 11 6 W 1008,1 10 0 0,0
19.06.2019 19:00:00 18,2 15,1 13 7 W 1007,9 10 0 0,0

tt = Température de l'air
td = dewpoint
ff = Vitesse du vent
dd = Direction du vent
ppp = reduced air pressure
vv = visibility
sd = Ensoleillement
rr = Quantités de précipitations

stations d'obs. à proximité